TimeCDT,TemperatureF,Dew PointF,Humidity,Sea Level PressureIn,VisibilityMPH,Wind Direction,Wind SpeedMPH,Gust SpeedMPH,PrecipitationIn,Events,Conditions,WindDirDegrees,DateUTC
12:52 AM,36.0,26.1,67,30.06,10.0,WNW,9.2,-,N/A,,Clear,290,2013-11-02 05:52:00
1:52 AM,33.1,25.0,72,30.07,10.0,South,4.6,-,N/A,,Clear,190,2013-11-02 06:52:00
2:52 AM,32.0,25.0,75,30.08,10.0,South,5.8,-,N/A,,Clear,180,2013-11-02 07:52:00
3:52 AM,30.0,24.1,79,30.09,10.0,SW,6.9,-,N/A,,Clear,230,2013-11-02 08:52:00
4:52 AM,28.0,23.0,81,30.09,10.0,South,3.5,-,N/A,,Clear,170,2013-11-02 09:52:00
5:52 AM,27.0,23.0,85,30.09,10.0,SE,3.5,-,N/A,,Clear,130,2013-11-02 10:52:00
6:52 AM,21.9,19.0,89,30.09,10.0,Calm,Calm,-,N/A,,Clear,0,2013-11-02 11:52:00
7:52 AM,23.0,19.9,88,30.09,10.0,SSW,3.5,-,N/A,,Clear,210,2013-11-02 12:52:00
8:52 AM,25.0,21.0,85,30.09,10.0,Calm,Calm,-,N/A,,Clear,0,2013-11-02 13:52:00
9:52 AM,30.0,26.1,85,30.08,10.0,Calm,Calm,-,N/A,,Clear,0,2013-11-02 14:52:00
10:52 AM,35.1,27.0,72,30.06,10.0,Calm,Calm,-,N/A,,Clear,0,2013-11-02 15:52:00
11:52 AM,39.9,28.0,63,30.04,10.0,SSW,4.6,-,N/A,,Clear,200,2013-11-02 16:52:00
12:52 PM,46.9,30.0,52,30.01,10.0,SSE,3.5,-,N/A,,Clear,160,2013-11-02 17:52:00
1:52 PM,53.1,28.0,38,29.95,10.0,SSE,6.9,-,N/A,,Clear,160,2013-11-02 18:52:00
2:52 PM,55.0,26.1,33,29.90,10.0,SSE,9.2,-,N/A,,Clear,160,2013-11-02 19:52:00
3:52 PM,55.0,26.1,33,29.86,10.0,SSE,12.7,-,N/A,,Clear,150,2013-11-02 20:52:00
4:52 PM,55.0,27.0,34,29.84,10.0,SE,13.8,-,N/A,,Scattered Clouds,140,2013-11-02 21:52:00
5:52 PM,53.1,27.0,37,29.82,10.0,SE,10.4,-,N/A,,Clear,140,2013-11-02 22:52:00
6:52 PM,51.1,27.0,39,29.81,10.0,SE,8.1,17.3,N/A,,Overcast,130,2013-11-02 23:52:00
7:52 PM,50.0,27.0,41,29.78,10.0,SE,11.5,-,N/A,,Overcast,130,2013-11-03 00:52:00
8:52 PM,48.9,28.0,44,29.77,10.0,SE,13.8,-,N/A,,Clear,130,2013-11-03 01:52:00
9:52 PM,46.9,28.0,48,29.74,10.0,SE,9.2,-,N/A,,Clear,130,2013-11-03 02:52:00
10:52 PM,46.0,28.0,50,29.70,10.0,SE,12.7,-,N/A,,Clear,130,2013-11-03 03:52:00
11:52 PM,46.0,28.9,51,29.68,10.0,ESE,10.4,-,N/A,,Clear,120,2013-11-03 04:52:00